星链-30298 (STARLINK-30298 )

导读

STARLINK-30298是美国SpaceX星链星座的一员,于2023年8月22日发射升空。星链项目旨在构建全球卫星互联网星座,为全球提供宽带互联网接入服务。该卫星入轨后参与低轨星座组网,服务覆盖全球偏远区域与网络基础设施薄弱地区,提升全球互联覆盖能力,也引发了天文观测与空间碎片相关讨论。

基本信息
目录编号:
57665
目录名称:
STARLINK-30298
国际标识:
2023-124C
轨道中心:
EARTH
卫星名称:
星链-30298
卫星全名:
星链-30298 (STARLINK-30298 )
卫星状态:
在轨 (已飞行1031 天)
发射日期:
2023-08-22 UTC
国别 :
美国 (US)
星等 :
--
轨道信息
数据来源 国际轨道数据
星历时间: 2026-06-18T14:00:02+0800
7小时前
查看轨道信息
半长轴: 6843.496km
偏心率: 0.0000998
轨道倾角: 53.161°
近地点辐角 69.789°
升交点赤经 99.935°
平近点角 199.330°
近地点: 464.676km
远地点: 466.042km
周期: 93.902分钟
每日圈数: 15.33507
详细信息
固有亮度:
5
最大亮度:
0.3
卫星平台:
Starlink v2.0 mini
覆盖范围:
全球
运营商:
太空探索技术公司
运营商所在国:
美国
制造商(研发单位):
太空探索技术公司
制造商所在国:
美国
使用方式:
暂无
卫星简介
星链(Starlink)计划是由太空探索技术公司(SpaceX)提出的一个巨型低轨卫星互联网星座项目,计划在2019年至2024年间在太空搭建由约1.2万颗卫星组成的“星链”网络,其中1584颗将部署在地球上空550千米处的近地轨道,并从2020年开始工作。该卫星仍在工作。
2D轨道图
3D轨道图
轨道高度分析图
轨道倾角分析图
轨道综合分析图
查看轨道综合分析图